Galesburg, IL

6:48 AM CDT on July 25, 2017 (GMT -0500)
Galesburg Municipal

Weather History for KGBG - October, 2014

Change the Weather History Date:

Tuesday, October 14, 2014

  Actual Average Record
Temperature  
Mean Temperature 56 °F -  
Max Temperature 61 °F 65 °F 84 °F (1989)
Min Temperature 51 °F 45 °F 30 °F (1969)
Degree Days  
Heating Degree Days 9    
Growing Degree Days 6 (Base 50)    
Moisture  
Dew Point 55 °F    
Average Humidity 94    
Maximum Humidity 97    
Minimum Humidity 91    
Precipitation  
Precipitation 0.36 in - - ()
Sea Level Pressure  
Sea Level Pressure 29.51 in    
Wind  
Wind Speed 8 mph (NE)    
Max Wind Speed 21 mph    
Max Gust Speed 25 mph    
Visibility 7 miles    
Events Rain    
Averages and records for this station are not official NWS values.
T = Trace of Precipitation, MM = Missing Value Source: NWS Daily Summary

Daily Weather History Graph

Daily Weather History Graph

Search for Another Location

Airport or City:

Trip Planner

Search our weather history database for the weather conditions in past years. The results will help you decide how hot, cold, wet, or windy it might be!

Date:

Astronomy

Oct. 14, 2014 Rise Set
Actual Time 7:12 AM CDT 6:22 PM CDT
Civil Twilight 6:44 AM CDT 6:50 PM CDT
Nautical Twilight 6:12 AM CDT 7:22 PM CDT
Astronomical Twilight 5:40 AM CDT 7:53 PM CDT
Moon 11:27 PM CDT (10/14) 1:14 PM CDT (10/14)
Length of Visible Light 12h 05m
Length of Day
11h 10m
Waning Gibbous, 61% of the Moon is Illuminated
Oct 14
Waning Gibbous
Oct 15
Last Quarter
Oct 23
New
Oct 30
First Quarter
Nov 6
Full

Hourly Weather History & Observations

Time (CDT) Temp. Dew Point Humidity Pressure Visibility Wind Dir Wind Speed Gust Speed Precip Events Conditions
12:15 AM 61.3 °F 59.0 °F 92% 29.44 in 10.0 mi SSE 9.2 mph - N/A   Overcast
12:35 AM 61.7 °F 59.0 °F 91% 29.44 in 10.0 mi SSE 6.9 mph - N/A   Overcast
12:55 AM 61.7 °F 59.0 °F 91% 29.44 in 10.0 mi SSE 9.2 mph - N/A   Overcast
1:15 AM 61.0 °F 58.8 °F 93% 29.44 in 10.0 mi SSE 6.9 mph - N/A   Overcast
1:35 AM 60.8 °F 58.5 °F 92% 29.44 in 10.0 mi SSE 6.9 mph - N/A   Overcast
1:55 AM 60.6 °F 58.3 °F 92% 29.44 in 10.0 mi SSE 5.8 mph - N/A   Overcast
2:15 AM 60.3 °F 58.1 °F 93% 29.44 in 10.0 mi SSE 6.9 mph - N/A   Overcast
2:35 AM 60.1 °F 58.1 °F 93% 29.44 in 10.0 mi SE 5.8 mph - N/A   Overcast
2:55 AM 60.1 °F 58.1 °F 93% 29.43 in 10.0 mi SSE 5.8 mph - N/A   Overcast
3:15 AM 59.9 °F 58.1 °F 94% 29.43 in 10.0 mi SE 4.6 mph - N/A   Overcast
3:35 AM 59.9 °F 58.1 °F 94% 29.43 in 10.0 mi ESE 4.6 mph - N/A   Overcast
3:55 AM 60.1 °F 57.9 °F 93% 29.43 in 10.0 mi SE 5.8 mph - N/A   Overcast
4:15 AM 60.1 °F 57.7 °F 92% 29.43 in 10.0 mi SE 5.8 mph - N/A   Overcast
4:35 AM 60.1 °F 57.6 °F 91% 29.43 in 10.0 mi SE 4.6 mph - N/A   Overcast
4:55 AM 59.5 °F 57.2 °F 92% 29.43 in 10.0 mi ESE 3.5 mph - N/A   Overcast
5:15 AM 59.9 °F 57.4 °F 91% 29.44 in 10.0 mi ESE 4.6 mph - N/A   Overcast
5:35 AM 59.4 °F 57.2 °F 93% 29.43 in 10.0 mi Calm Calm - N/A   Overcast
5:55 AM 59.2 °F 57.2 °F 93% 29.44 in 10.0 mi Calm Calm - N/A   Overcast
6:15 AM 59.0 °F 57.2 °F 94% 29.44 in 10.0 mi East 3.5 mph - N/A   Overcast
6:35 AM 59.0 °F 57.2 °F 94% 29.43 in 10.0 mi Calm Calm - N/A   Overcast
6:55 AM 58.6 °F 57.2 °F 95% 29.42 in 10.0 mi East 3.5 mph - N/A   Overcast
7:15 AM 58.6 °F 57.4 °F 96% 29.42 in 10.0 mi East 4.6 mph - N/A   Overcast
7:35 AM 59.0 °F 57.2 °F 94% 29.43 in 10.0 mi Calm Calm - N/A   Overcast
7:55 AM 59.0 °F 57.2 °F 94% 29.43 in 10.0 mi East 3.5 mph - N/A   Overcast
8:15 AM 59.0 °F 57.2 °F 94% 29.44 in 10.0 mi East 3.5 mph - N/A   Overcast
8:35 AM 59.0 °F 57.2 °F 94% 29.44 in 7.0 mi East 5.8 mph - N/A Rain Rain
8:55 AM 58.3 °F 57.2 °F 96% 29.44 in 2.5 mi East 5.8 mph - 0.12 in Rain Heavy Rain
9:15 AM 58.3 °F 57.4 °F 97% 29.44 in 3.0 mi East 5.8 mph - 0.04 in Rain Light Rain
9:35 AM 58.5 °F 57.7 °F 97% 29.44 in 4.0 mi East 3.5 mph - 0.05 in Rain Heavy Rain
9:55 AM 59.0 °F 58.3 °F 97% 29.44 in 5.0 mi East 4.6 mph - 0.06 in Rain Light Rain
10:15 AM 59.5 °F 58.5 °F 96% 29.43 in 7.0 mi ESE 6.9 mph - 0.01 in   Light Drizzle
10:35 AM 59.7 °F 57.9 °F 94% 29.44 in 7.0 mi East 5.8 mph - 0.01 in Rain Rain
10:55 AM 59.9 °F 58.5 °F 95% 29.44 in 7.0 mi Calm Calm - 0.03 in Rain Light Rain
11:15 AM 59.9 °F 58.3 °F 94% 29.45 in 10.0 mi Calm Calm - 0.01 in Rain Light Rain
11:35 AM 59.9 °F 57.9 °F 93% 29.45 in 10.0 mi ESE 3.5 mph - 0.01 in   Drizzle
11:55 AM 60.3 °F 58.3 °F 93% 29.45 in 4.0 mi Calm Calm - 0.01 in   Overcast
12:15 PM 59.2 °F 57.6 °F 94% 29.45 in 3.0 mi East 3.5 mph - 0.04 in Rain Rain
12:35 PM 59.9 °F 58.1 °F 94% 29.45 in 4.0 mi Calm Calm - 0.06 in Rain Light Rain
12:55 PM 60.1 °F 58.3 °F 94% 29.45 in 7.0 mi ENE 5.8 mph - 0.06 in   Overcast
1:15 PM 59.7 °F 57.9 °F 94% 29.46 in 5.0 mi NNE 3.5 mph - N/A   Drizzle
1:35 PM 57.2 °F 55.9 °F 96% 29.46 in 2.5 mi NNW 15.0 mph - 0.01 in Rain Rain
1:55 PM 56.8 °F 55.9 °F 97% 29.47 in 4.0 mi NNW 11.5 mph - 0.02 in   Heavy Drizzle
2:15 PM 56.5 °F 55.6 °F 97% 29.47 in 2.0 mi North 15.0 mph 23.0 mph 0.01 in Rain Rain
2:35 PM 56.5 °F 55.4 °F 96% 29.48 in 3.0 mi NNW 12.7 mph - 0.02 in Rain Light Rain
2:55 PM 56.3 °F 55.4 °F 97% 29.49 in 1.8 mi NNW 13.8 mph - 0.03 in Rain Heavy Rain
3:15 PM 55.8 °F 54.9 °F 97% 29.51 in 3.0 mi NNW 13.8 mph 19.6 mph 0.01 in   Heavy Drizzle
3:35 PM 55.4 °F 54.1 °F 96% 29.52 in 3.0 mi NNW 12.7 mph 16.1 mph 0.01 in   Heavy Drizzle
3:55 PM 55.4 °F 53.6 °F 94% 29.53 in 10.0 mi NNW 13.8 mph - N/A   Drizzle
4:15 PM 54.9 °F 53.2 °F 94% 29.54 in 10.0 mi NNW 16.1 mph 20.7 mph N/A Rain Light Rain
4:35 PM 54.5 °F 52.3 °F 92% 29.55 in 10.0 mi NNW 15.0 mph 23.0 mph N/A   Drizzle
4:55 PM 54.0 °F 52.0 °F 93% 29.56 in 10.0 mi NNW 17.3 mph 20.7 mph N/A Rain Light Rain
5:15 PM 53.6 °F 51.3 °F 92% 29.57 in 10.0 mi NNW 20.7 mph - N/A   Light Drizzle
5:35 PM 53.2 °F 50.9 °F 92% 29.58 in 10.0 mi NNW 12.7 mph 24.2 mph N/A   Overcast
5:55 PM 53.1 °F 50.5 °F 91% 29.59 in 10.0 mi NNW 17.3 mph 21.9 mph N/A   Overcast
6:15 PM 52.7 °F 50.2 °F 91% 29.59 in 10.0 mi NNW 16.1 mph 20.7 mph N/A   Overcast
6:35 PM 52.3 °F 50.0 °F 92% 29.61 in 10.0 mi NNW 16.1 mph 23.0 mph N/A   Overcast
6:55 PM 52.2 °F 50.0 °F 92% 29.62 in 7.0 mi NNW 13.8 mph 19.6 mph N/A   Overcast
7:15 PM 51.8 °F 50.0 °F 94% 29.63 in 5.0 mi NNW 13.8 mph - N/A   Overcast
7:35 PM 51.8 °F 50.0 °F 94% 29.64 in 4.0 mi NNW 12.7 mph 20.7 mph N/A   Overcast
7:55 PM 51.8 °F 50.5 °F 95% 29.64 in 3.0 mi NNW 15.0 mph - N/A   Overcast
8:15 PM 51.8 °F 50.9 °F 97% 29.65 in 3.0 mi NNW 13.8 mph 18.4 mph N/A   Overcast
8:35 PM 51.8 °F 50.9 °F 97% 29.66 in 4.0 mi NNW 12.7 mph 18.4 mph N/A   Overcast
8:55 PM 51.8 °F 50.9 °F 97% 29.66 in 3.0 mi NNW 11.5 mph - N/A   Heavy Drizzle
9:15 PM 51.8 °F 50.9 °F 97% 29.67 in 3.0 mi NNW 13.8 mph 20.7 mph 0.01 in   Heavy Drizzle
9:35 PM 51.8 °F 50.9 °F 97% 29.68 in 2.5 mi NNW 13.8 mph - 0.02 in Rain Heavy Rain
9:55 PM 52.0 °F 51.3 °F 97% 29.68 in 3.0 mi NNW 17.3 mph - 0.02 in   Drizzle
10:15 PM 52.0 °F 51.1 °F 97% 29.69 in 4.0 mi North 13.8 mph - N/A   Drizzle
10:35 PM 52.0 °F 51.1 °F 97% 29.70 in 7.0 mi North 15.0 mph 24.2 mph N/A   Overcast
10:55 PM 52.0 °F 50.9 °F 96% 29.70 in 5.0 mi North 18.4 mph 25.3 mph N/A Rain Light Rain
11:15 PM 52.0 °F 50.4 °F 94% 29.71 in 10.0 mi North 15.0 mph 21.9 mph N/A   Overcast
11:35 PM 51.8 °F 50.2 °F 94% 29.71 in 10.0 mi North 16.1 mph - N/A   Overcast
11:55 PM 51.8 °F 50.2 °F 94% 29.71 in 5.0 mi NNW 15.0 mph - N/A   Drizzle